Randolph AFB, TX

7:03 AM CDT on August 18, 2017 (GMT -0500)
Randolph Air Force Base

Weather History for KRND - May, 2014

Change the Weather History Date:

Friday, May 23, 2014

  Actual Average Record
Temperature  
Mean Temperature 76 °F -  
Max Temperature 81 °F 86 °F 96 °F (2008)
Min Temperature 70 °F 67 °F 55 °F (2001)
Cooling Degree Days 10    
Growing Degree Days 26 (Base 50)    
Moisture  
Dew Point 67 °F    
Average Humidity 81    
Maximum Humidity 89    
Minimum Humidity 60    
Precipitation  
Precipitation 0.00 in - - ()
Sea Level Pressure  
Sea Level Pressure 30.05 in    
Wind  
Wind Speed 9 mph (SE)    
Max Wind Speed 15 mph    
Max Gust Speed 20 mph    
Visibility 10 miles    
Events Rain    
Averages and records for this station are not official NWS values.
T = Trace of Precipitation, MM = Missing Value Source: NWS Daily Summary

Daily Weather History Graph

Daily Weather History Graph

Search for Another Location

Airport or City:

Trip Planner

Search our weather history database for the weather conditions in past years. The results will help you decide how hot, cold, wet, or windy it might be!

Date:

Astronomy

May. 23, 2014 Rise Set
Actual Time 6:36 AM CDT 8:23 PM CDT
Civil Twilight 6:10 AM CDT 8:50 PM CDT
Nautical Twilight 5:38 AM CDT 9:22 PM CDT
Astronomical Twilight 5:04 AM CDT 9:55 PM CDT
Moon 3:07 AM CDT (5/23) 3:39 PM CDT (5/23)
Length of Visible Light 14h 40m
Length of Day
13h 47m
Waning Crescent, 27% of the Moon is Illuminated
May 23
Waning Crescent
May 28
New
Jun 5
First Quarter
Jun 12
Full
Jun 19
Last Quarter

Hourly Weather History & Observations

Time (CDT) Temp. Heat Index Dew Point Humidity Pressure Visibility Wind Dir Wind Speed Gust Speed Precip Events Conditions
12:58 AM 72.7 °F - 66.9 °F 82% 30.07 in 10.0 mi SSE 5.8 mph - N/A   Overcast
1:48 AM 73.4 °F - 66.2 °F 78% 30.09 in 10.0 mi SSE 12.7 mph - N/A   Overcast
1:53 AM 73.4 °F - 66.2 °F 78% 30.09 in 10.0 mi SSE 10.4 mph - N/A   Overcast
1:58 AM 72.5 °F - 66.4 °F 81% 30.07 in 10.0 mi SSE 10.4 mph - N/A   Overcast
2:03 AM 71.6 °F - 66.2 °F 83% 30.09 in 10.0 mi SSE 10.4 mph - N/A   Overcast
2:13 AM 71.6 °F - 66.2 °F 83% 30.09 in 10.0 mi SSE 6.9 mph - N/A   Overcast
2:18 AM 71.6 °F - 66.2 °F 83% 30.09 in 10.0 mi SSE 9.2 mph - N/A   Overcast
2:23 AM 71.6 °F - 66.2 °F 83% 30.08 in 10.0 mi SSE 9.2 mph - N/A   Overcast
2:28 AM 71.6 °F - 66.2 °F 83% 30.08 in 10.0 mi SSE 9.2 mph - N/A   Overcast
2:38 AM 71.6 °F - 66.2 °F 83% 30.07 in 10.0 mi SSE 8.1 mph - N/A   Overcast
2:58 AM 71.4 °F - 66.7 °F 85% 30.05 in 10.0 mi SSE 8.1 mph - N/A   Mostly Cloudy
3:08 AM 71.6 °F - 66.2 °F 83% 30.07 in 10.0 mi SSE 8.1 mph - N/A   Mostly Cloudy
3:18 AM 71.6 °F - 66.2 °F 83% 30.07 in 10.0 mi South 9.2 mph - N/A   Mostly Cloudy
3:23 AM 71.6 °F - 66.2 °F 83% 30.07 in 10.0 mi South 10.4 mph - N/A   Mostly Cloudy
3:38 AM 71.6 °F - 66.2 °F 83% 30.06 in 10.0 mi South 9.2 mph - N/A   Mostly Cloudy
3:43 AM 71.6 °F - 66.2 °F 83% 30.06 in 10.0 mi SSE 9.2 mph - N/A   Mostly Cloudy
3:48 AM 71.6 °F - 66.2 °F 83% 30.06 in 10.0 mi South 9.2 mph - N/A   Mostly Cloudy
3:53 AM 71.6 °F - 68.0 °F 88% 30.06 in 10.0 mi SSE 9.2 mph - N/A   Mostly Cloudy
3:58 AM 71.4 °F - 67.1 °F 86% 30.04 in 10.0 mi SSE 8.1 mph - N/A   Mostly Cloudy
4:38 AM 71.6 °F - 68.0 °F 88% 30.04 in 10.0 mi SE 5.8 mph - N/A   Overcast
4:58 AM 70.9 °F - 67.3 °F 88% 30.03 in 10.0 mi SE 6.9 mph - N/A   Overcast
5:58 AM 71.1 °F - 67.6 °F 89% 30.03 in 10.0 mi SSE 8.1 mph - N/A   Overcast
6:08 AM 71.6 °F - 68.0 °F 88% 30.05 in 10.0 mi SSE 8.1 mph - N/A   Overcast
6:18 AM 71.6 °F - 68.0 °F 88% 30.05 in 10.0 mi SSE 8.1 mph - N/A   Overcast
6:28 AM 71.6 °F - 68.0 °F 88% 30.06 in 10.0 mi SE 9.2 mph - N/A   Mostly Cloudy
6:33 AM 71.6 °F - 68.0 °F 88% 30.06 in 10.0 mi SE 8.1 mph - N/A   Overcast
6:58 AM 71.1 °F - 67.6 °F 89% 30.05 in 10.0 mi SSE 8.1 mph - N/A   Overcast
7:58 AM 71.6 °F - 68.0 °F 88% 30.05 in 10.0 mi SSE 10.4 mph - N/A   Overcast
8:03 AM 71.6 °F - 68.0 °F 88% 30.07 in 10.0 mi SE 10.4 mph - N/A   Overcast
8:18 AM 71.6 °F - 68.0 °F 88% 30.06 in 10.0 mi SE 12.7 mph - N/A   Overcast
8:43 AM 71.6 °F - 68.0 °F 88% 30.06 in 10.0 mi SE 11.5 mph - N/A   Overcast
8:58 AM 72.0 °F - 67.6 °F 86% 30.04 in 10.0 mi SE 11.5 mph 19.6 mph N/A   Overcast
9:38 AM 71.6 °F - 68.0 °F 88% 30.05 in 10.0 mi SE 12.7 mph - N/A   Overcast
9:58 AM 73.4 °F - 68.0 °F 83% 30.03 in 10.0 mi SE 15.0 mph - N/A   Mostly Cloudy
10:03 AM 73.4 °F - 68.0 °F 83% 30.05 in 10.0 mi SE 10.4 mph - N/A   Mostly Cloudy
10:43 AM 73.4 °F - 68.0 °F 83% 30.06 in 10.0 mi SE 10.4 mph - N/A   Overcast
10:48 AM 75.2 °F - 68.0 °F 78% 30.06 in 10.0 mi SSE 10.4 mph - N/A   Overcast
10:58 AM 75.0 °F - 67.3 °F 77% 30.05 in 10.0 mi SSE 11.5 mph - N/A   Overcast
11:35 AM 75.2 °F - 68.0 °F 78% 30.08 in 8.0 mi SE 5.8 mph - N/A Rain Light Rain
11:36 AM 75.2 °F - 68.0 °F 78% 30.08 in 7.0 mi SE 5.8 mph - N/A Rain Light Rain
11:41 AM 75.2 °F - 68.0 °F 78% 30.08 in 6.0 mi SE 6.9 mph - N/A Rain Light Rain
11:46 AM 73.4 °F - 68.0 °F 83% 30.08 in 8.0 mi SE 5.8 mph - N/A Rain Light Rain
11:51 AM 75.2 °F - 68.0 °F 78% 30.08 in 10.0 mi SE 8.1 mph - N/A   Light Drizzle
11:53 AM 75.2 °F - 68.0 °F 78% 30.08 in 10.0 mi SE 9.2 mph - N/A   Mostly Cloudy
11:58 AM 75.4 °F - 68.7 °F 80% 30.06 in 10.0 mi SE 9.2 mph - 0.00 in   Mostly Cloudy
12:21 PM 75.2 °F - 68.0 °F 78% 30.07 in 10.0 mi SSE 8.1 mph - N/A   Light Drizzle
12:41 PM 75.2 °F - 68.0 °F 78% 30.07 in 10.0 mi SE 10.4 mph - N/A   Overcast
12:58 PM 76.1 °F - 68.2 °F 76% 30.05 in 10.0 mi SE 12.7 mph - 0.00 in   Overcast
1:03 PM 75.2 °F - 68.0 °F 78% 30.07 in 10.0 mi SE 10.4 mph - N/A   Light Drizzle
1:13 PM 77.0 °F - 68.0 °F 74% 30.06 in 10.0 mi SE 8.1 mph - N/A   Mostly Cloudy
1:58 PM 76.3 °F - 68.2 °F 76% 30.04 in 10.0 mi SE 10.4 mph - 0.00 in   Overcast
2:29 PM 77.0 °F - 69.8 °F 78% 30.05 in 10.0 mi ESE 6.9 mph - N/A   Light Drizzle
2:38 PM 77.0 °F - 68.0 °F 74% 30.04 in 10.0 mi SE 5.8 mph - N/A   Overcast
2:58 PM 78.3 °F - 68.9 °F 73% 30.01 in 10.0 mi ESE 6.9 mph - 0.00 in   Overcast
3:58 PM 79.7 °F - 68.9 °F 69% 29.99 in 10.0 mi East 10.4 mph - N/A   Overcast
4:58 PM 81.1 °F 83.9 °F 67.8 °F 64% 29.96 in 10.0 mi East 9.2 mph - N/A   Overcast
5:58 PM 81.7 °F 84.2 °F 67.3 °F 61% 29.95 in 10.0 mi East 10.4 mph - N/A   Mostly Cloudy
6:58 PM 81.1 °F 83.2 °F 66.0 °F 60% 29.94 in 10.0 mi SE 10.4 mph - N/A   Scattered Clouds
7:58 PM 79.5 °F - 64.4 °F 60% 29.95 in 10.0 mi SE 13.8 mph - N/A   Mostly Cloudy
8:58 PM 75.4 °F - 65.1 °F 70% 29.97 in 10.0 mi SE 9.2 mph - N/A   Clear
9:58 PM 73.6 °F - 65.1 °F 75% 29.99 in 10.0 mi SE 9.2 mph - N/A   Clear
10:58 PM 72.0 °F - 66.9 °F 84% 30.01 in 10.0 mi SE 9.2 mph - N/A   Clear
11:38 PM 71.6 °F - 66.2 °F 83% 30.04 in 10.0 mi SE 9.2 mph - N/A   Mostly Cloudy
11:58 PM 71.6 °F - 66.4 °F 84% 30.02 in 10.0 mi SE 11.5 mph - N/A   Overcast